TIME,DELAY(SENSOR),PRES,OXYGEN,RAWTEMP,T(OPTODE),TCPHASE,FLUOR,BETA(BETA700),BETA(BETA412),BETA(BETA440),CDOM,C(CSC),ED(ED412.40),ED(ED444.00),ED(ED489.70),ED(ED554.30),LU(LU411.80),LU(LU443.40),LU(LU489.60),LU(LU554.10),COMP,TILTX,TILTY,CHECK
1333770865,5809,889.8300170898438000,41.8294792175293000,661.0886230468750000,4.5921292304992680,54.7314605712890600,52,101,92,80,84,15252,2147758985,2147423222,2148004955,2147874742,2147638637,2147063387,2148263204,2147203273,3397,4,14,55843
1333774461,5807,981.2199707031250000,44.7920913696289060,668.2982177734375000,4.3543992042541500,54.3873405456543000,53,101,88,81,83,15252,2147756525,2147423286,2148008786,2147871424,2147643968,2147068498,2148261110,2147202944,1167,4,13,26536
1333778061,5810,988.9500122070312000,45.0246009826660160,669.2056884765625000,4.3244318962097170,54.3646011352539060,53,100,88,79,84,15253,2147760603,2147422601,2148005805,2147874825,2147643638,2147068397,2148260690,2147207003,300,4,13,20348
1333781661,5807,991.3499755859375000,44.8590011596679700,670.3543701171875000,4.2864909172058105,54.4010810852050800,52,102,91,79,84,15251,2147759725,2147423597,2148003136,2147872603,2147642404,2147073206,2148261046,2147203693,680,4,13,56946
1333785261,5809,985.2600097656250000,44.8598098754882800,671.4218750000000000,4.2512130737304690,54.4130401611328100,53,101,88,79,85,15248,2147758052,2147422418,2148000576,2147874578,2147640877,2147061869,2148265225,2147203702,575,4,13,25326
1333788861,5810,1003.5200195312500000,45.7518005371093750,671.9663085937500000,4.2332210540771480,54.2929992675781250,53,101,88,80,85,15244,2147758491,2147421888,2148008073,2147875739,2147642066,2147066779,2148262994,2147205348,3251,4,13,43854
1333792461,5809,997.3499755859375000,45.5826187133789060,671.8787841796875000,4.2361130714416500,54.3174514770507800,53,101,91,80,83,15243,2147759890,2147420845,2148006016,2147873828,2147645257,2147069028,2148264082,2147203154,177,4,14,45743
1333796061,5810,995.6300048828125000,45.8878593444824200,673.5225830078125000,4.1817607879638670,54.2882995605468750,53,100,90,79,84,15243,2147756224,2147420598,2148008393,2147877385,2147642578,2147064064,2148262235,2147203410,556,4,13,37767
1333799661,5808,1004.8699951171875000,45.9008598327636700,673.5673217773438000,4.1802830696105960,54.2918090820312500,53,99,86,81,84,15245,2147756160,2147420525,2148006976,2147873636,2147643382,2147059922,2148266148,2147202322,515,4,13,27911
1333803261,5809,1006.6900024414062000,45.4683609008789060,673.0355834960938000,4.1978659629821780,54.3444709777832000,53,98,88,80,84,15241,2147757888,2147422747,2148008173,2147876772,2147645321,2147066166,2148262070,2147205083,180,4,13,19679
1333806861,5811,1008.5999755859375000,45.7437286376953100,673.3286743164062000,4.1881752014160160,54.3083801269531250,53,100,89,79,83,15243,2147757622,2147423515,2148006902,2147877074,2147644864,2147062921,2148264192,2147201170,415,5,13,56553
1333810461,5812,1008.5399780273438000,45.1379699707031250,671.9721069335938000,4.2330298423767090,54.3763999938964840,52,112,88,78,83,15241,2147755757,2147422509,2148005037,2147873545,2147641664,2147064877,2148262208,2147203172,272,4,13,5186
1333814061,5807,1009.4799804687500000,44.9942703247070300,672.2609863281250000,4.2234778404235840,54.4083709716796900,53,98,90,79,84,15240,2147757979,2147421019,2148006619,2147874971,2147644068,2147065014,2148261741,2147203053,356,4,13,26543
1333817661,5804,1006.7500000000000000,45.3806190490722660,673.3358154296875000,4.1879410743713380,54.3617782592773440,53,101,84,81,84,15241,2147759780,2147420736,2148004406,2147875794,2147644589,2147063872,2148264438,2147205412,3591,4,13,61498
1333821261,5809,1014.8099975585938000,44.8764686584472660,672.7744140625000000,4.2065048217773440,54.4277992248535160,53,99,89,79,84,15240,2147760512,2147421696,2148009307,2147876973,2147642523,2147058349,2148263259,2147202057,396,4,13,56455
1333824861,5809,1013.9799804687500000,44.8841018676757800,672.7890014648438000,4.2060217857360840,54.4235496520996100,53,100,89,80,84,15238,2147759707,2147421065,2148005348,2147872886,2147641398,2147067858,2148265316,2147202249,492,4,13,48690
1333828461,5807,1017.0700073242188000,45.0915184020996100,672.2180786132812000,4.2248950004577640,54.3870506286621100,53,99,87,79,84,15236,2147761773,2147424201,2148008118,2147876141,2147641462,2147066230,2148261421,2147202432,529,4,13,10105
1333832061,5810,1014.0900268554688000,45.0431098937988300,672.4644165039062000,4.2167568206787110,54.4011306762695300,52,99,88,79,84,15237,2147756937,2147420589,2148005997,2147876489,2147640064,2147061394,2148259584,2147202541,388,4,13,43045
1333835661,5809,1009.3499755859375000,44.9166183471679700,672.3322143554688000,4.2211270332336430,54.4186210632324200,53,101,87,81,84,15222,2147762797,2147417755,2148005586,2147875894,2147642962,2147067620,2148261174,2147203136,3439,4,13,27865
1333839261,5811,1013.2100219726562000,45.3952903747558600,673.3668823242188000,4.1869130134582520,54.3612594604492200,53,98,88,80,83,15218,2147758390,2147420160,2148006564,2147875538,2147641984,2147066002,2148262656,2147200448,627,4,13,36603
1333842861,5808,1010.6799926757812000,45.5542907714843750,673.8333129882812000,4.1714878082275390,54.3406715393066400,52,108,87,79,84,15219,2147759798,2147419300,2148009042,2147873764,2147644662,2147067483,2148261942,2147203291,41,5,13,32723
1333846461,5810,1011.8200073242188000,45.5749015808105500,674.3773803710938000,4.1534857749938965,54.3484611511230500,53,98,90,80,83,15218,2147759689,2147419520,2148008064,2147872384,2147642368,2147070089,2148260397,2147203958,3595,4,14,11882
1333850061,5809,1012.1599731445312000,45.8418884277343750,674.2833251953125000,4.1566009521484375,54.3074989318847660,52,99,91,81,84,15218,2147760996,2147419264,2148006025,2147871478,2147643483,2147067812,2148259748,2147202313,3538,4,13,19204
1333853661,5809,1019.6099853515625000,45.0615501403808600,673.3488159179688000,4.1875109672546390,54.4078788757324200,53,99,90,78,84,15219,2147757714,2147420461,2148006272,2147873005,2147640923,2147067830,2148264018,2147202980,507,4,13,59339
1333857261,5811,1014.0700073242188000,44.5064811706543000,672.6138916015625000,4.2118110656738280,54.4816207885742200,52,100,90,80,83,15220,2147758491,2147422610,2148006436,2147872850,2147642331,2147070070,2148263762,2147204434,3313,4,13,52835
1333860861,5808,1018.7199707031250000,44.7983283996582000,673.3577880859375000,4.1872100830078125,54.4477806091308600,53,99,88,78,84,15219,2147758948,2147420297,2148008091,2147871963,2147644461,2147064585,2148259410,2147201280,305,4,13,28877
1333864461,5810,1023.0700073242188000,44.9064483642578100,673.4453125000000000,4.1843199729919430,54.4344291687011700,52,99,89,80,83,15220,2147758336,2147425773,2148008064,2147873782,2147640612,2147067739,2148259419,2147200886,713,4,13,60280
1333868061,5804,1026.6099853515625000,45.4051208496093750,672.9337158203125000,4.2012391090393070,54.3496589660644500,53,99,89,78,84,15219,2147755940,2147422162,2148004790,2147874651,2147642669,2147067227,2148256667,2147204315,3017,4,13,40418
1333871661,5807,1020.2700195312500000,44.3795585632324200,671.5764770507812000,4.2461028099060060,54.4818191528320300,53,101,92,78,84,15210,2147758802,2147417280,2148007616,2147871314,2147643282,2147069293,2148256566,2147202834,101,4,14,57200
1333875261,5808,1026.5600585937500000,44.8141784667968750,671.3939819335938000,4.2521362304687500,54.4214096069335940,54,100,91,81,83,15212,2147759725,2147421138,2148004187,2147872603,2147641581,2147072091,2148260260,2147204662,540,4,13,60177
1333878861,5807,1019.3599853515625000,44.0318984985351560,671.6314086914062000,4.2442889213562010,54.5393791198730500,53,100,86,80,84,15213,2147759698,2147418112,2148005458,2147875044,2147640914,2147063698,2148262564,2147206921,366,4,13,29168
1333882461,5809,1014.3099975585938000,44.9099884033203100,673.3223266601562000,4.1883850097656250,54.4262199401855500,53,98,87,80,84,15210,2147762313,2147418029,2148005257,2147875136,2147641481,2147069467,2148258788,2147202349,3586,4,14,61484
1333886061,5808,1020.2899780273438000,44.8791809082031250,673.2282714843750000,4.1914958953857420,54.4327888488769500,53,100,88,79,84,15207,2147758244,2147423917,2148006153,2147874541,2147642395,2147070354,2148262875,2147202112,3381,4,13,15580
1333889661,5810,1013.8499755859375000,45.4159889221191400,673.4907226562500000,4.1828169822692870,54.3573112487793000,54,100,87,81,84,15201,2147758290,2147420489,2148006253,2147872768,2147643273,2147063698,2148262070,2147201499,3278,4,13,26224
1333893261,5807,1017.6599731445312000,45.4551200866699200,673.6635131835938000,4.1771011352539060,54.3539314270019500,53,98,89,81,83,15202,2147761453,2147421385,2148006144,2147872036,2147642651,2147064694,2148263350,2147201490,3493,4,14,48137
1333896861,5807,1011.0499877929688000,45.5704307556152340,674.3568725585938000,4.1541628837585450,54.3474807739257800,54,101,88,80,83,15203,2147759350,2147422418,2148005403,2147875684,2147639899,2147064091,2148263753,2147200877,163,4,13,16969
1333900461,5808,1014.5499877929688000,45.8579711914062500,674.3729858398438000,4.1536312103271480,54.3094787597656250,52,102,90,80,84,15200,2147758601,2147421321,2148008073,2147878409,2147643730,2147067730,2148266121,2147202084,369,4,13,12103
1333904061,5809,1016.5200195312500000,45.7681083679199200,673.5407714843750000,4.1811599731445310,54.3117408752441400,53,100,86,80,85,15202,2147756416,2147421531,2148005970,2147874002,2147642550,2147065673,2148258633,2147203693,294,4,13,32008
1333907661,5806,1011.2399902343750000,45.6888504028320300,673.8652954101562000,4.1704268455505370,54.3232307434082000,53,102,92,80,85,15200,2147753124,2147419126,2148003474,2147874057,2147641801,2147065536,2148259693,2147201965,938,4,13,36486
1333911261,5807,1013.5200195312500000,45.6002502441406250,674.5584716796875000,4.1474947929382320,54.3420600891113300,53,102,89,80,84,15192,2147759131,2147423387,2148007259,2147873892,2147638116,2147065444,2148260251,2147202157,222,4,13,59176
1333914861,5807,1013.6900024414062000,45.8254890441894500,675.0150756835938000,4.1323871612548830,54.3211517333984400,52,113,94,79,83,15187,2147761088,2147420717,2148006610,2147877357,2147646811,2147060004,2148260928,2147204973,2892,4,13,56377
1333914955,5809,1013.6799926757812000,45.8913192749023440,674.9481811523438000,4.1346020698547360,54.3111801147460940,53,99,89,79,84,15231,2147756772,2147423232,2148008658,2147877421,2147639049,2147061769,2148258496,2147202843,2740,4,14,53177
